Regional Weather Roundup
Issued by NWS

Home | Current Version | Previous Version | Graphics & Text | Print | Product List | Glossary On
Versions: 1 2 3 4 5 6 7 8 9 10 11 12 13 14 15 16 17 18 19 20 21 22 23 24 25 26 27 28 29 30 31 32 33 34 35 36 37 38 39 40 41 42 43 44 45 46 47 48 49 50
000
ASUS43 KMPX 221710
RWRMN
WEATHER ROUNDUP FOR MINNESOTA
NATIONAL WEATHER SERVICE TWIN CITIES/CHANHASSEN MN
1100 AM CST MON JAN 22 2018


NOTE: "FAIR" INDICATES FEW OR NO CLOUDS BELOW 12,000 FEET WITH NO
SIGNIFICANT WEATHER AND/OR OBSTRUCTIONS TO VISIBILITY. N/A MEANS
CURRENT SKY AND/OR WEATHER CONDITIONS ARE NOT AVAILABLE.

MNZ060>063-068>070-221800-
   Twin Cities Metro

CITY           SKY/WX    TMP DP  RH WIND       PRES   REMARKS
TWIN CITIES    LGT SNOW  30  29  96 N17G28    29.74F VSB 3/4 WCI  18
ST PAUL        SNOW      31  29  92 N14G20    29.76F VSB 1/2 WCI  21
CRYSTAL        SNOW      30  25  81 NE14      29.76F VSB 1/2 WCI  19
BLAINE         LGT SNOW  32  28  86 NE15G21   29.78S VSB 1   WCI  22
LAKEVILLE      SNOW      28  28 100 N18G24    29.70F VSB 1/4 WCI  16
EDEN PRAIRIE   SNOW      31  27  85 N18G24    29.72F VSB 1/2 WCI  19
SOUTH ST PAUL  LGT SNOW  31  30  93 N14G21    29.74F VSB 1   WCI  21
LAKE ELMO      SNOW      32  30  93 N13G21    29.75F VSB 1/2 WCI  22
$$
MNZ001>005-007-008-013>017-022>024-027-028-221800-
   Northwest Minnesota

CITY           SKY/WX    TMP DP  RH WIND       PRES   REMARKS
BEMIDJI        CLOUDY    24  23  95 NE10      29.99S WCI  14
HALLOCK        CLOUDY    27  21  80 N6        30.11F WCI  20
ROSEAU         CLOUDY    23  18  80 N12       30.08F WCI  12
WARROAD        CLOUDY    21  18  86 N10       30.09F WCI  10
THIEF RVR FALL CLOUDY    25  22  88 NE12      30.05S WCI  14
CROOKSTON      FAIR      25  23  93 N10       30.06S WCI  15
FOSSTON        CLOUDY    23  21  93 NE10      30.01S WCI  12
DETROIT LAKES  CLOUDY    28  27  93 NE13      29.95F WCI  18
MOORHEAD       CLOUDY    27  23  86 N15       30.00S WCI  15
PARK RAPIDS    CLOUDY    26  22  84 NE17G28   29.94S WCI  13
MAHNOMEN       CLOUDY    26  23  87 NE17      29.97F WCI  13
$$
MNZ006-009>011-018-025>026-221800-
   North Central Minnesota

CITY           SKY/WX    TMP DP  RH WIND       PRES   REMARKS
BAUDETTE       CLOUDY    21  19  92 NE9       30.06F WCI  11
FLAG ISLAND    CLOUDY    18  16  93 N10       30.10F WCI   6
INTL FALLS     CLOUDY    19  16  88 NE7       30.06F WCI  10
WASKISH        CLOUDY    23  21  93 NE7       30.04S WCI  15
BIG FORK       CLOUDY    21  19  93 N7        30.01S WCI  13
LONGVILLE      CLOUDY    27  21  80 NE7G20    29.95F WCI  19
GRAND RAPIDS   CLOUDY    26  22  84 N9        29.97F WCI  17
CRANE LAKE     CLOUDY    18  12  79 NE7       30.07F WCI   8
ORR            CLOUDY    18  16  93 CALM      30.00F
COOK           CLOUDY    19  18  93 N5        30.01F WCI  13
WALKER         CLOUDY    26  22  85 NE9       29.97F WCI  16
$$
MNZ012-019>021-037-221800-
   Northeast Minnesota

CITY           SKY/WX    TMP DP  RH WIND       PRES   REMARKS
DULUTH         CLOUDY    22  21  96 NE18G26   29.93S FOG     WCI   7
HIBBING        CLOUDY    23  20  88 N9        29.96F WCI  13
EVELETH        CLOUDY    28  23  83 NE10      29.98F WCI  18
DULUTH HARBOR  CLOUDY    28  27  93 NE25G36   29.97S WCI  14
TWO HARBORS    CLOUDY    25  19  80 NE13G20   29.95S WCI  13
SILVER BAY     CLOUDY    23  21  93 NE6       29.96F WCI  16
GRAND MARAIS     N/A     25  16  68 NE7       30.02F WCI  17
G MARAIS ARPRT CLOUDY    16  10  79 N15G21    29.96F WCI   1
$$
MNZ029>031-032-039>041-046>048-054>057-064-221800-
   West Central Minnesota

CITY           SKY/WX    TMP DP  RH WIND       PRES   REMARKS
FERGUS FALLS   CLOUDY    27  25  93 NE15      29.93F WCI  15
MORRIS         CLOUDY    28  27  93 N21       29.87F WCI  15
ALEXANDRIA     CLOUDY    26  23  88 NE21G30   29.87F WCI  12
ELBOW LAKE     CLOUDY    27  25  93 E15G22    29.91S FOG     WCI  15
WADENA         CLOUDY    25  23  93 NE16      29.91F WCI  12
GLENWOOD       CLOUDY    27  25  93 N24       29.84F WCI  12
APPLETON       CLOUDY    30  25  80 N26       29.85F WCI  16
BENSON           N/A     28  25  86 NE24      29.85F WCI  14
ORTONVILLE     CLOUDY    27  25  93 N21G29    29.88F WCI  13
MADISON        CLOUDY    30  28  93 N22       29.84F WCI  17
WILLMAR        CLOUDY    28  25  86 NE26G32   29.82F WCI  13
$$
MNZ033>034-036-042>043-049>051-058-059-221800-
   Central Minnesota

CITY           SKY/WX    TMP DP  RH WIND       PRES   REMARKS
ST CLOUD       CLOUDY    29  25  85 N14G26    29.82F WCI  18
SAUK CENTRE      N/A     26  23  87 N21G30    29.85F WCI  12
PAYNESVILLE    CLOUDY    29  26  89 N24G32    29.82S WCI  14
AITKIN         CLOUDY    25  21  86 N14       29.90F WCI  13
PINE RIVER     CLOUDY    25  21  86 NE9G18    29.97S WCI  15
BRAINERD       CLOUDY    27  22  81 NE15      29.91F WCI  15
STAPLES        CLOUDY    27  21  80 NE9       29.91F WCI  17
LONG PRAIRIE   CLOUDY    27  23  86 N18G28    29.87F WCI  13
LITTLE FALLS   CLOUDY    28  19  69 N7G21     29.88F WCI  21
LITCHFIELD     CLOUDY    30  27  86 N14G26    29.79F WCI  20
BUFFALO        CLOUDY    30  25  82 N17G23    29.80S WCI  18
MAPLE LAKE     CLOUDY    31  27  87 MISG      29.81S
HUTCHINSON     FLURRIES  31  27  86 N16G28    29.77S WCI  19
$$
MNZ037-044-045-052-053-221800-
   East Central Minnesota

CITY           SKY/WX    TMP DP  RH WIND       PRES   REMARKS
PRINCETON      CLOUDY    30  27  86 N24G33    29.82F WCI  16
MORA           CLOUDY    30  25  80 NE9G17    29.86F WCI  22
CAMBRIDGE      CLOUDY    30  23  74 N14G22    29.82S WCI  20
RUSH CITY      CLOUDY    29  25  84 NE14G25   29.83S WCI  19
MOOSE LAKE     CLOUDY    27  23  86 NE13G21   29.89F FOG     WCI  16
HINCKLEY       CLOUDY    30  27  86 N18G28    29.85F WCI  18
CLOQUET        CLOUDY    23  19  86 NE13      29.92S WCI  11
MCGREGOR       CLOUDY    27  23  86 NE12      29.92F WCI  16
$$
MNZ071>073-080-081-089-090-097-098-221800-
   Southwest Minnesota

CITY           SKY/WX    TMP DP  RH WIND       PRES   REMARKS
MONTEVIDEO     CLOUDY    28  27  93 NE24G31   29.82F WCI  14
GRANITE FALLS  CLOUDY    31  27  83 N22G32    29.81S WCI  18
CANBY          CLOUDY    28  27  95 N17G32    29.83F WCI  16
MARSHALL       CLOUDY    29  25  85 NE24G31   29.78S WCI  15
REDWOOD FALLS  SNOW      28  26  92 N14G25    29.76S VSB 1/2 WCI  17
OLIVIA         CLOUDY    30  27  86 N24       29.77S WCI  16
PIPESTONE      CLOUDY    25  23  93 NE21G33   29.71S WCI  10
WINDOM         CLOUDY    28  16  59 N30G41    29.64S WCI  13
WORTHINGTON    HVY SNOW  28  27  96 N29G41    29.63R VSB 1/4 WCI  12
JACKSON          N/A     30  28  93 N38G45    29.60R VSB 1/4 WCI  14
TRACY          CLOUDY    29  28  97 N30G36    29.73F WCI  13
SLAYTON        CLOUDY    27  26  96 N29G40    29.68S WCI  11
$$
MNZ065>067-074>077-082>085-091>093-221800-
   South Central Minnesota

CITY           SKY/WX    TMP DP  RH WIND       PRES   REMARKS
MANKATO        SNOW      30  29  96 N31G39    29.62F VSB 1/2 WCI  15
NEW ULM        CLOUDY    28  27  93 N17G30    29.69F WCI  16
ST JAMES         N/A     28 N/A N/A N29       29.65F WCI  13
FAIRMONT       HVY SNOW  30  29  96 N24G35    29.59R VSB 1/4 WCI  16
GLENCOE        SNOW      30  30 100 N10G22    29.74F VSB 1/2 WCI  21
FARIBAULT      SNOW      30  28  93 N20G33    29.63F VSB 1/2 WCI  18
OWATONNA       HVY SNOW  30  30 100 N25G33    29.57F VSB 1/4 WCI  16
WASECA         HVY SNOW  32  30  93 N33G44    29.57F VSB<1/4 WCI  17
ALBERT LEA     LGT SNOW  34  32  93 NE20G33   29.53R WCI  22
$$
MNZ078>079-086>088-094>096-221800-
   Southeast Minnesota

CITY           SKY/WX    TMP DP  RH WIND       PRES   REMARKS
ROCHESTER      LGT SNOW  32  32 100 NE22G35   29.55F VSB 3/4 WCI  19
RED WING       LGT SNOW  34  30  86 NE12G17   29.66F VSB 3/4 WCI  25
STANTON        SNOW      32  30  92 N26       29.65F VSB 1/4 WCI  18
DODGE CENTER   LGT SNOW  30  30 100 NE24G35   29.54F VSB 3/4 WCI  16
WINONA         LGT RAIN  34  32  93 NE12      29.59F WCI  25
AUSTIN         MIX PCPN  34  30  86 NE22G32   29.52S WCI  22
PRESTON        LGT SNOW  32  31  95 NE16G24   29.53S WCI  22
$$
ABBREVIATIONS USED IN REMARKS
   TC - TEMPERATURES IN CELSIUS
  WCI - WIND CHILL INDEX
   HX - HEAT INDEX
  VSB - VISIBILITY
$$




USA.gov is the U.S. government's official web portal to all federal, state and local government web resources and services.